Location: La Trinit�
(48.1620°N, 3.4512°W)
Time: 16:22:36
(UTC+00:00)

Cosmos 1933 Rocket - Pass Details

Date: 08 May 2021
Orbit: 606 x 630 km, 82.5° (Epoch: 16 June)

Event Time Altitude Azimuth Distance (km) Brightness Sun altitude
Rises 21:45:37 0° 352° (N) 2,881 8.1 -17.0°
Reaches altitude 10° 21:47:52 10° 354° (N) 1,970 7.1 -17.2°
Maximum altitude 21:52:13 73° 80° (E) 639 3.5 -17.6°
Enters shadow 21:53:50 37° 156° (SSE) 945 4.0 -17.8°
